{"data":{"norad_id":61738,"epoch":"2026-05-25T03:44:35.464128Z","epoch_age_seconds":61486,"freshness":"FRESH","line1":"1 61738U 24199D   26145.15596602  .00002476  00000+0  21704-3 0  9997","line2":"2 61738  97.3245 345.9596 0007528 136.1276 224.0546 14.97472654128379","mean_motion":14.97472654,"eccentricity":0.0007528,"inclination_deg":97.3245,"raan_deg":345.9596,"arg_perigee_deg":136.1276,"mean_anomaly_deg":224.0546,"bstar":0.00021704,"rev_number":12837,"period_min":96.16202313635,"perigee_km":569.47432554922,"apogee_km":579.942529625,"semimajor_km":6952.8454275871,"source":"CELESTRAK","updated_at":"2026-05-25T13:38:02.530364Z"}}